Вернуться в каталог

FENGYUN 1C DEB

АктивенPO
NORAD 30815·DEBRIS·🇨🇳 China

Запущен May 10, 1999 с Taiyuan Satellite Launch Center

Loading…

Ближайшие Пролёты (ближайшие 24 часа)

TLE

СвежийSource: Space-Track

Эпоха: Sep 12, 2026, 02:15 UTC

1 30815U 99025AUZ 26255.09430354  .00012822  00000-0  14434-2 0  9993
2 30815  99.2945  99.4708 0002678  53.7991  72.9427 14.86823439 17918

Отслеживайте FENGYUN 1C DEB в реальном времени с AllMySat

Download on the App Store